Preview of NWS' New Version of Forecast
This preview is not operational and should not be used for support decisions.
Latest weather observations around

Canton, Cherokee County Airport (KCNI)

Using English Units (Switch to International System of Units)
Date/ Time (EDT) Wind (mph) Vis. (mi) Weather Sky Cond. Temp (°F) Rel. Humidity Wind Chill (°F) Heat Index (°F) Pressure Precip. (in)
Air Dwpt 6 hour Altimeter (inHg) Sea level (inHg) 1 hr 3 hr 6 hr
Max Min
Apr 23 03:15 E 13 4 Rain BKN006 OVC010 57 55     94%     30        
Apr 23 02:55 ENE 13 2 Heavy Rain OVC006 57 55     94%     30        
Apr 23 02:35 E 8 3 Heavy Rain OVC006 57 55     94%     30.02        
Apr 23 02:15 E 13 3 Heavy Rain OVC006 59 55     88%     30.03        
Apr 23 01:55 E 11 2.5 Heavy Rain OVC006 59 55     88%     30.03        
Apr 23 01:35 ENE 9 4 Rain OVC006 59 55     88%     30.02        
Apr 23 01:15 E 13 3 Heavy Rain OVC006 59 55     88%     30.03        
Apr 23 00:55 E 11 2.5 Heavy Rain OVC006 59 55     88%     30.06        
Apr 23 00:35 ENE 10 2.5 Heavy Rain BKN006 OVC010 59 55     88%     30.03        
Apr 23 00:15 E 14 3 Rain BKN008 OVC011 59 55     88%     30.05        
Apr 22 23:55 E 14 5 Rain OVC010 59 55     88%     30.06        
Apr 22 23:35 E 17 10 Light Rain OVC008 59 55     88%     30.06        
Apr 22 23:15 E 17 10 Light Drizzle OVC008 59 55     88%     30.06        
Apr 22 22:55   10 Cloudy OVC008 59 55     88%     30.06        
Apr 22 22:35 E 18 10 Light Rain OVC008 59 55     88%     30.06        
Apr 22 22:15 E 14 10 Light Rain OVC008 59 55     88%     30.06        
Apr 22 21:55 E 20 10 Cloudy and Windy OVC008 59 55     88%     30.07        
Apr 22 21:35   10 Light Rain OVC008 59 55     88%     30.07        
Apr 22 21:15 E 18 10 Light Rain OVC008 59 55     88%     30.06        
Apr 22 20:55 E 14 7 Light Rain OVC008 59 55     88%     30.08        
Apr 22 20:35 E 17 10 Light Rain OVC010 59 55     88%     30.08        
Apr 22 20:15 E 13 7 Rain OVC010 59 55     88%     30.08        
Apr 22 19:55 E 15 5 Light Rain OVC010 59 55     88%     30.08        
Apr 22 19:35 E 9 10 Rain OVC010 59 55     88%     30.08        
Apr 22 19:15 E 15 10 Cloudy OVC010 59 55     88%     30.09        
Apr 22 18:55 E 13 10 Cloudy OVC010 59 55     88%     30.1        
Apr 22 18:35 E 11 10 Cloudy OVC010 59 55     88%     30.11        
Apr 22 18:15 E 13 10 Light Rain OVC010 59 55     88%     30.1        
Apr 22 17:55 E 14 7 Light Rain BKN010 OVC013 59 55     88%     30.11        
Apr 22 17:35 E 7 7 Light Rain SCT010 BKN013 OVC019 59 55     88%     30.12        
Apr 22 17:15 E 8 7 Drizzle SCT011 OVC017 59 55     88%     30.13        
Apr 22 16:55 E 10 7 Light Rain BKN011 OVC016 59 55     88%     30.13        
Apr 22 16:35 E 11 10 Cloudy BKN009 OVC014 59 55     88%     30.14        
Apr 22 16:15 E 11 10 Rain BKN009 OVC014 59 55     88%     30.14        
Apr 22 15:55 E 14 10 Rain BKN009 OVC015 59 55     88%     30.15        
Apr 22 15:35 E 11 10 Light Drizzle BKN007 OVC012 59 55     88%     30.17        
Apr 22 15:15 E 9 4 Rain OVC005 59 55     88%     30.18        
Apr 22 14:55 E 7 3 Rain OVC005 59 55     88%     30.2        
Apr 22 14:35 E 7 3 Rain BKN005 OVC013 59 55     88%     30.19        
Apr 22 14:15 E 7 4 Light Rain OVC005 59 55     88%     30.2        
Apr 22 13:55 E 6 2.5 Rain BKN005 OVC015 59 55     88%     30.21        
Apr 22 13:35 E 8 3 Rain SCT007 OVC017 59 55     88%     30.22        
Apr 22 13:15 E 6 4 Rain OVC017 59 54     82%     30.22        
Apr 22 12:55 E 7 7 Light Rain OVC017 59 54     82%     30.22        
Apr 22 12:35 E 7 4 Rain OVC017 59 54     82%     30.23        
Apr 22 12:15 E 8 7 Rain OVC019 61 50     68%     30.23        
Apr 22 11:55 E 10 10 Cloudy BKN021 OVC025 61 50     68%     30.24        
Apr 22 11:35 E 11 10 Cloudy SCT019 BKN025 OVC049 61 50     68%     30.25        
Apr 22 11:15 E 7 10 Cloudy SCT019 SCT028 OVC047 61 50     68%     30.25        
Apr 22 10:55 E 10 10 Cloudy SCT019 OVC047 61 50     68%     30.25        
Apr 22 10:35 E 8 10 Cloudy OVC019 61 50     68%     30.25        
Apr 22 10:15 E 8 10 Cloudy OVC019 61 50     68%     30.25        
Apr 22 09:55 E 9 10 Cloudy OVC019 61 48     63%     30.25        
Apr 22 09:35 E 5 10 Cloudy BKN019 OVC039 61 48     63%     30.25        
Apr 22 09:15 E 6 10 Cloudy BKN019 BKN039 OVC070 61 46     59%     30.26        
Apr 22 08:55 E 8 10 Cloudy SCT019 OVC070 61 46     59%     30.25        
Apr 22 08:35 E 8 10 Cloudy SCT034 SCT065 OVC070 61 45     55%     30.25        
Apr 22 08:15 E 10 10 Cloudy BKN032 OVC055 59 45     59%     30.26        
Apr 22 07:55 ENE 5 10 Cloudy BKN032 BKN042 OVC055 59 45     59%     30.26        
Apr 22 07:35 E 3 10 Cloudy BKN032 BKN037 OVC045 59 43     55%     30.26        
Apr 22 07:15 ENE 8 10 Cloudy SCT022 BKN030 OVC037 59 43     55%     30.26        
Apr 22 06:55 E 5 10 Cloudy BKN022 OVC030 59 43     55%     30.26        
Apr 22 06:35 E 6 10 Cloudy SCT022 BKN027 OVC033 59 43     55%     30.26        
Apr 22 06:15 ENE 6 10 Light Rain BKN027 BKN033 OVC047 59 43     55%     30.26        
Apr 22 05:55 ENE 5 10 Cloudy SCT027 BKN042 OVC047 59        %     30.26        
Apr 22 05:35 ENE 5 10 Cloudy SCT026 SCT033 OVC042 59 37     45%     30.25        
Apr 22 05:15 ENE 5 10 Cloudy SCT024 SCT029 OVC037 59 37     45%     30.25        
Apr 22 04:55 ENE 3 10 Cloudy BKN022 BKN036 OVC042 61 37     42%     30.25        
Apr 22 04:35 E 5 10 Cloudy SCT022 OVC042 59 37     45%     30.25        
Apr 22 04:15 ENE 5 10 Cloudy OVC042 61 37     42%     30.25        
Apr 22 03:55 ENE 5 10 Cloudy OVC044 61 37     42%     30.25        
Apr 22 03:35 ENE 3 10 Cloudy OVC044 61 36     39%     30.26        
Apr 22 03:15 ENE 3 10 Cloudy OVC044 61 34     36%     30.26        
Apr 22 02:55 E 7 10 Cloudy OVC046 61 34     36%     30.25        
Apr 22 02:35 ENE 6 10 Cloudy BKN048 OVC080 59 34     39%     30.27        
Apr 22 02:15 ENE 3 10 Cloudy BKN050 OVC080 59 34     39%     30.27        
Apr 22 01:55 E 5 10 Cloudy SCT039 OVC050 59 34     39%     30.27        
Apr 22 01:35 E 3 10 Cloudy SCT037 OVC050 61        %     30.28        
Apr 22 01:15 Calm 10 Cloudy SCT050 OVC075 61        %     30.28        
Apr 22 00:55 Calm 10 Cloudy SCT050 OVC075 61        %     30.28        
Apr 22 00:35 ENE 3 10 Cloudy BKN050 OVC075 61        %     30.28        
Apr 22 00:15 ENE 6 10 Cloudy OVC050 61        %     30.28        
Apr 21 23:55 ENE 6 10 Cloudy BKN050 OVC075 61 34     36%     30.27        
Apr 21 23:35 ENE 5 10 Mostly Cloudy BKN050 BKN075 61 34     36%     30.28        
Apr 21 23:15 ENE 5 10 Mostly Cloudy BKN050 BKN075 61 34     36%     30.28        
Apr 21 22:55 ENE 3 10 Mostly Cloudy BKN075 63 34     34%     30.28        
Apr 21 22:35 Calm 10 Cloudy OVC075 63        %     30.28        
Apr 21 22:15 E 3 10 Cloudy OVC075 63 34     34%     30.29        
Apr 21 21:55 ENE 3 10 Cloudy OVC075 64 34     32%     30.29        
Apr 21 21:35 ENE 3 10 Cloudy OVC075 63        %     30.28        
Apr 21 21:15 ENE 3 10 Cloudy OVC075 64        %     30.28        
Apr 21 20:55 ENE 3 10 Mostly Cloudy SCT060 BKN075 64        %     30.27        
Apr 21 20:35 E 3 10 Partly Cloudy SCT060 SCT075 66 32     28%     30.27        
Apr 21 20:15 E 5 10 Partly Cloudy SCT060 66        %     30.26        
Apr 21 19:55 E 7 10 Clear CLR 68        %     30.25        
Apr 21 19:35 E 5 10 Clear CLR 70        %     30.25        
Apr 21 19:15 E 6 10 Partly Cloudy SCT065 70        %     30.25        
Apr 21 18:55 ENE 8 10 Partly Cloudy SCT065 72        %     30.25        
Apr 21 18:35 E 7 10 Clear CLR 72        %     30.26        
Apr 21 18:15 E 14 10 Clear CLR 73        %     30.26        
Apr 21 17:55 E 5 10 Clear CLR 73        %     30.25        
Apr 21 17:35 ENE 7 10 Clear CLR 73        %     30.26        
Apr 21 17:15 E 8 10 Clear CLR 72        %     30.26        
Apr 21 16:55 E 7 10 Clear CLR 73        %     30.26        
Apr 21 16:35 E 9 10 Clear CLR 72        %     30.27        
Apr 21 16:15 ESE 8 10 Clear CLR 72        %     30.27        
Apr 21 15:55 E 8 10 Clear CLR 72        %     30.28        
Apr 21 15:35 ESE 8 10 Clear CLR 72        %     30.29        
Apr 21 15:15 ESE 10 10 Clear CLR 72        %     30.3        
Apr 21 14:55 E 7 10 Clear CLR 72        %     30.31        
Apr 21 14:35 ENE 11 10 Clear CLR 72        %     30.32        
Apr 21 14:15 E 7 10 Clear CLR 70        %     30.32        
Apr 21 13:55 E 7 10 Clear CLR 68        %     30.33        
Apr 21 13:35 E 16 10 Clear CLR 68        %     30.33        
Apr 21 13:15 ESE 9 10 Clear CLR 68        %     30.34        
Apr 21 12:55 ENE 10 10 Clear CLR 68        %     30.34        
Apr 21 12:35 E 14 10 Clear CLR 68        %     30.35        
Apr 21 12:15 E 17 10 Clear CLR 66        %     30.35        
Apr 21 11:55 E 13 10 Clear CLR 66        %     30.36        
Apr 21 11:35 E 13 10 Clear CLR 64        %     30.36        
Apr 21 11:15   10 Clear CLR 64        %     30.36        
Apr 21 10:55 E 11 10 Clear CLR 63        %     30.36        
Apr 21 10:35 E 9 10 Clear CLR 63 30     29%     30.36        
Apr 21 10:15 E 8 10 Clear CLR 61 32     34%     30.36        
Apr 21 09:55 E 8 10 Clear CLR 59 32     36%     30.36        
Apr 21 09:35 E 6 10 Clear CLR 55 32     41%     30.36        
Apr 21 09:15 ENE 7 10 Clear CLR 54 32     44%     30.36        
Apr 21 08:55 E 7 10 Clear CLR 52 32     47%     30.35        
Apr 21 08:35 E 5 10 Clear CLR 50 32     50% 48   30.36        
Apr 21 08:15 E 3 10 Clear CLR 48 32     53% 47   30.35        
Apr 21 07:55 ENE 3 10 Clear CLR 45 34     66% 43   30.35        
Apr 21 07:35 Calm 10 Clear CLR 43 32     65%     30.35        
Apr 21 07:15 Calm 10 Clear CLR 43 34     70%     30.35        
Apr 21 06:55 ENE 5 10 Clear CLR 43 32     65% 40   30.35        
Apr 21 06:35 Calm 10 Clear CLR 41 34     75%     30.34        
Apr 21 06:15 ENE 3 10 Clear CLR 41 34     75% 39   30.33        
Apr 21 05:55 NE 3 10 Clear CLR 41 34     75% 39   30.32        
Apr 21 05:35 Calm 10 Clear CLR 43 32     65%     30.32        
Apr 21 05:15 Calm 10 Clear CLR 45 32     61%     30.32        
Apr 21 04:55 Calm 10 Clear CLR 43 34     70%     30.32        
Apr 21 04:35 Calm 10 Clear CLR 43 34     70%     30.32        
Apr 21 04:15 Calm 10 Clear CLR 46 32     57%     30.32        
Apr 21 03:55 Calm 10 Clear CLR 48 32     53%     30.31        
Apr 21 03:35 NNE 3 10 Clear CLR 45 34     66% 43   30.31        
Apr 21 03:15 Calm 10 Clear CLR 43 34     70%     30.31        
Apr 21 02:55 Calm 10 Clear CLR 46 34     61%     30.31        
Apr 21 02:35 Calm 10 Clear CLR 45 34     66%     30.3        
Apr 21 02:15 Calm 10 Clear CLR 45 34     66%     30.3        
Apr 21 01:55 Calm 10 Clear CLR 50 32     50%     30.3        
Apr 21 01:35 Calm 10 Clear CLR 46 34     61%     30.3        
Apr 21 01:10 NNE 3 10 Clear CLR 46 34     61% 45   30.3        
Apr 21 00:55 NE 3 10 Clear CLR 50 32     50% 49   30.3        
Apr 21 00:35 Calm 10 Clear CLR 46 34     61%     30.3        
Apr 21 00:15 Calm 10 Clear CLR 48 34     57%     30.3        
Apr 20 23:55 Calm 10 Clear CLR 52 32     47%     30.3        
Apr 20 23:35 Calm 10 Clear CLR 50 32     50%     30.3        
Apr 20 23:15 Calm 10 Clear CLR 52 32     47%     30.3        
Apr 20 22:55 Calm 10 Clear CLR 52 32     47%     30.3        
Apr 20 22:35 Calm 10 Clear CLR 54 32     44%     30.3        
Apr 20 22:15 Calm 10 Clear CLR 59        %     30.3        
Apr 20 21:55 Calm 10 Clear CLR 61        %     30.3        
Apr 20 21:35 Calm 10 Clear CLR 61        %     30.3        
Apr 20 21:15 Calm 10 Clear CLR 63        %     30.29        
Apr 20 20:55 Calm 10 Clear CLR 64        %     30.29        
Apr 20 20:35 Calm 10 Clear CLR 63        %     30.29        
Apr 20 20:15 Calm 10 Clear CLR 64        %     30.28        
Apr 20 19:55 Calm 10 Clear CLR 66        %     30.28        
Apr 20 19:35 Calm 10 Clear CLR 68        %     30.28        
Apr 20 19:15 Calm 10 Clear CLR 70        %     30.27        
Apr 20 18:55 S 3 10 Clear CLR 70        %     30.27        
Apr 20 18:35 Calm 10 Clear CLR 70        %     30.27        
Apr 20 18:15 S 6 10 Clear CLR 70        %     30.27        
Apr 20 17:55 S 5 10 Clear CLR 70        %     30.27        
Apr 20 17:35 Calm 10 Clear CLR 70        %     30.28        
Apr 20 17:15 Calm 10 Clear CLR 70        %     30.28        
Apr 20 16:55 Calm 10 Clear CLR 70        %     30.28        
Apr 20 16:35 SE 5 10 Clear CLR 68        %     30.29        
Apr 20 16:15 Calm 10 Clear CLR 68        %     30.3        
Apr 20 15:55 Calm 10 Clear CLR 68        %     30.3        
Apr 20 15:35 SE 3 10 Clear CLR 68        %     30.32        
Apr 20 15:15 S 5 10 Clear CLR 64        %     30.33        
Apr 20 14:55 Calm 10 Clear CLR 64        %     30.33        
Apr 20 14:35 SE 6 10 Clear CLR 64        %     30.34        
Apr 20 14:15 Calm 10 Clear CLR 64        %     30.35        
Apr 20 13:55 Calm 10 Clear CLR 63        %     30.35        
Apr 20 13:35 Calm 10 Clear CLR 61        %     30.35        
Apr 20 13:15 ESE 8 10 Clear CLR 61        %     30.36        
Apr 20 12:55 ESE 5 10 Clear CLR 61        %     30.37        
Apr 20 12:35 ENE 6 10 Clear CLR 59        %     30.37        
Apr 20 12:15 ESE 6 10 Clear CLR 59        %     30.38        
Apr 20 11:55 ENE 7 10 Clear CLR 59        %     30.38        
Apr 20 11:35 E 6 10 Clear CLR 55        %     30.38        
Apr 20 11:15 ENE 7 10 Clear CLR 55        %     30.38        
Apr 20 10:55 ESE 7 10 Clear CLR 54        %     30.38        
Apr 20 10:35 E 9 10 Clear CLR 54 27     35%     30.37        
Apr 20 10:15 E 3 10 Clear CLR 52 27     37%     30.37        
Apr 20 09:55 ENE 7 10 Clear CLR 50 28     43% 47   30.37        
Apr 20 09:35 ENE 6 10 Clear CLR 50 28     43% 48   30.37        
Apr 20 09:15 E 6 10 Clear CLR 46 30     53% 43   30.36        
Apr 20 08:55 ENE 6 10 Clear CLR 45 32     61% 41   30.36        
Apr 20 08:35 Calm 10 Clear CLR 41 32     70%     30.36        
Apr 20 08:15 Calm 10 Clear CLR 36 32     87%     30.35        
Apr 20 07:55 Calm 10 Clear CLR 34 32     93%     30.34        
Apr 20 07:35 Calm 10 Clear CLR 34 32     93%     30.33        
Apr 20 07:15 Calm 10 Clear CLR 34 30     86%     30.31        
Apr 20 06:55 Calm 10 Clear CLR 34 30     86%     30.3        
Apr 20 06:35 Calm 10 Clear CLR 36 32     87%     30.29        
Apr 20 06:15 Calm 10 Clear CLR 36 30     81%     30.28        
Apr 20 05:55 Calm 10 Clear CLR 37 30     75%     30.27        
Apr 20 05:35 Calm 10 Clear CLR 37 30     75%     30.26        
Apr 20 05:15 Calm 10 Clear CLR 37 30     75%     30.25        
Apr 20 04:55 Calm 10 Clear CLR 39 30     70%     30.25        
Apr 20 04:35 Calm 10 Clear CLR 41 30     65%     30.23        
Apr 20 04:15 Calm 10 Clear CLR 41 28     61%     30.23        
Apr 20 03:55 Calm 10 Clear CLR 41 30     65%     30.22        
Apr 20 03:35 Calm 10 Clear CLR 41 28     61%     30.21        
Apr 20 03:15 Calm 10 Clear CLR 43 28     57%     30.21        
Apr 20 02:55 Calm 10 Clear CLR 43 28     57%     30.2        
Jun 12 08:55 Calm 10 Cloudy BKN008 OVC012 72 66     83%   72 30.25        
Jun 12 02:35 Calm 10 Clear CLR 73 64     73%   74 30.21        
Jun 11 23:35 E 3 10 Mostly Cloudy SCT029 BKN049 77 63     61%   77 30.21        
Jun 11 22:55 ESE 3 10 Partly Cloudy SCT049 77        %     30.21        
Jun 11 19:55 Calm 10 Partly Cloudy SCT055 82        %     30.17        
Jun 11 16:15 E 8 10 Partly Cloudy SCT038 88        %     30.2        
Jun 11 15:15 E 6 10 Mostly Cloudy SCT037 SCT042 BKN055 86        %     30.22        
Jun 11 07:35 Calm 10 Partly Cloudy SCT008 64 61     88%     30.21        
Jun 10 23:15 Calm 10 Clear CLR 73        %     30.18        
Jun 10 22:35 Calm 10 Clear CLR 75        %     30.16        
Jun 10 19:55 Calm 10 Mostly Cloudy BKN060 BKN075 82        %     30.11        
Jun 10 19:35 Calm 10 Partly Cloudy SCT060 81        %     30.1        
Jun 10 16:15 ENE 5 10 Partly Cloudy SCT055 SCT080 86        %     30.12        
Jun 10 11:35 Calm 10 Partly Cloudy SCT070 79        %     30.15        
Jun 10 11:15 Calm 10 Partly Cloudy SCT060 SCT070 77        %     30.16        
Jun 10 10:55 Calm 10 Mostly Cloudy SCT050 BKN070 77        %     30.16        
Jun 10 05:55 Calm 5 Fog/Mist CLR 59 55     88%     30.07        
Jun 10 05:15 Calm 5 Fog/Mist CLR 59 55     88%     30.06        
Jun 09 18:15 WNW 7 10 Clear CLR 81 46     30%   80 29.97        
Notice The following observation data may not be complete
Jun 09 15:35   10 Partly Cloudy SCT070          %              
Notice The following observation data may not be complete
Jun 09 15:15   10 Clear CLR          %              
Jun 09 14:55 WNW 3 10 Clear CLR 81        %     30        
Jun 09 09:55 Calm 10 Clear CLR 70 55     60%     30.02        
Jun 09 06:15 Calm 5 Fog/Mist CLR 59 55     88%     29.97        
Jun 08 23:35 Calm 10 Clear CLR 66 59     78%     29.93        
Jun 08 13:35 SSW 3 10 Partly Cloudy SCT036 SCT060 SCT085 75 48     38%   74 29.95        
Jun 08 12:35 ENE 3 10 Partly Cloudy SCT031 SCT041 SCT050 73        %     29.96        
Jun 08 10:15 ENE 7 10 Partly Cloudy SCT016 SCT100 70 54     56%     29.97        
Jun 08 09:35 ENE 5 10 Partly Cloudy SCT012 68 54     60%     29.97        
Jun 07 23:35 Calm 10 Light Drizzle SCT037 SCT042 OVC050 66 59     78%     29.91        
Jun 07 22:55 Calm 10 Cloudy BKN036 BKN055 OVC070 68 55     64%     29.91        
Jun 07 19:55 E 5 10 Mostly Cloudy SCT050 BKN075 77 52     41%   76 29.86        
Jun 07 16:15 Calm 10 Mostly Cloudy SCT060 BKN090 77 52     41%   76 29.85        
Jun 07 13:35 E 3 10 Clear CLR 79        %     29.86        
Notice The following observation data may not be complete
Jun 07 09:35   10 Mostly Cloudy BKN060 BKN070          %              
Jun 06 15:15 WNW 3 10 Clear CLR 79 61     54%   79 29.8        
Jun 06 06:35 Calm 1.25 Fog/Mist BKN009 70 66     88%     29.84        
Jun 06 05:55 Calm 1.5 Light Rain SCT005 BKN120 70 68     94%     29.84        
Notice The following observation data may not be complete
Jun 06 04:35   5 Fog/Mist OVC003          %              
Notice The following observation data may not be complete
Jun 06 03:35   7 Partly Cloudy SCT003 SCT080 SCT120          %              
Jun 06 01:35 Calm 7 Partly Cloudy SCT120 70 68     94%     29.86        
Jun 05 22:55 W 3 10 Clear   72 68     88%   73 29.87